Home   Weather   Bruny Island   Past weeks
Flag for Australia

Past Weather in Bruny Island, Tasmania, Australia — Yesterday and Last 2 Weeks

Now
54 °F

Passing clouds.


Feels Like: 50 °F
Forecast: 58 / 40 °F
Wind: 10 mph from Northwest

Location: Hobart Airport

Current Time: Oct 16, 2019 at 11:31:09 am

Latest Report: Oct 16, 2019 at 10:30 am


Visibility: N/A

Pressure: 29.86 "Hg

Humidity: 58%

Dew Point: 39 °F

Location of Bruny IslandLocation

Past Weather in Bruny Island — Graph

°F

Bruny Island Temperature Yesterday

Maximum temperature yesterday: 55 °F (at 8:30 am)
Minimum temperature yesterday: 45 °F (at 11:00 pm)
Average temperature yesterday: 50 °F

High & Low Weather Summary for the Past Weeks

 TemperatureHumidityPressure
High82 °F (Oct 3, 2:30 pm)100% (Oct 16, 1:30 am)30.33 "Hg (Oct 16, 1:30 am)
Low37 °F (Oct 5, 4:00 am)12% (Oct 3, 3:35 pm)29.42 "Hg (Oct 6, 2:18 pm)
Average52 °F66%30.05 "Hg
* Reported Oct 1 9:00 am — Oct 16 10:00 am, Bruny Island. Weather by CustomWeather, © 2019

Note: Actual official high and low records may vary slightly from our data, if they occured in-between our weather recording intervals... More about our weather records

Advertising

Bruny Island Weather History for the Previous 24 Hours

Scroll right to see more
 ConditionsComfort  
Time TempWeatherWind HumidityBarometerVisibility
10:00 am
Wed, Oct 16
52 °FPassing clouds.9 mph62%29.86 "HgN/A
9:30 am50 °FPassing clouds.8 mph76%29.89 "HgN/A
9:00 am48 °FPassing clouds.8 mph82%29.89 "HgN/A
8:30 am45 °FPassing clouds.9 mph87%29.89 "HgN/A
8:00 am43 °FPassing clouds.9 mph87%29.89 "HgN/A
7:30 am41 °FScattered clouds.12 mph93%29.89 "HgN/A
7:20 am41 °FLight fog.12 mph87%29.89 "HgN/A
7:00 am41 °FLight fog.12 mph87%29.89 "HgN/A
6:30 am41 °FScattered clouds.12 mph87%29.89 "HgN/A
6:00 am41 °FLight fog.13 mph87%29.89 "HgN/A
5:30 am41 °FClear.12 mph87%29.89 "HgN/A
5:00 am41 °FClear.10 mph93%29.89 "HgN/A
4:30 am41 °FClear.9 mph93%29.89 "HgN/A
4:00 am41 °FClear.6 mph93%29.89 "HgN/A
3:30 am41 °FClear.8 mph93%29.89 "HgN/A
3:00 am43 °FClear.9 mph87%29.89 "HgN/A
2:30 am43 °FClear.10 mph93%29.89 "HgN/A
2:00 am43 °FClear.9 mph93%29.89 "HgN/A
1:30 am43 °FClear.9 mph100%29.89 "HgN/A
1:00 am45 °FClear.6 mph93%29.89 "HgN/A
12:30 am45 °FClear.8 mph93%29.92 "HgN/A
12:00 am45 °FPassing clouds.9 mph93%29.92 "HgN/A
11:30 pm
Tue, Oct 15
45 °FPassing clouds.3 mph93%29.92 "HgN/A
11:00 pm45 °FPassing clouds.3 mph93%29.92 "HgN/A
10:00 pm46 °FPassing clouds.6 mph87%29.92 "HgN/A
9:30 pm46 °FPassing clouds.5 mph87%29.92 "HgN/A
9:00 pm46 °FPartly cloudy.5 mph93%29.92 "HgN/A
8:30 pm46 °FPartly cloudy.6 mph87%29.89 "HgN/A
8:00 pm48 °FPartly cloudy.6 mph82%29.89 "HgN/A
7:30 pm50 °FLight rain. Broken clouds.6 mph82%29.89 "HgN/A
7:00 pm48 °FLight rain. Broken clouds.3 mph94%29.86 "HgN/A
6:30 pm48 °FLight rain. Broken clouds.6 mph94%29.86 "HgN/A
6:00 pm50 °FLight rain. Broken clouds.5 mph88%29.86 "HgN/A
5:30 pm50 °FLight rain. Broken clouds.5 mph88%29.86 "Hg5 mi
5:15 pm48 °FRain. Broken clouds.2 mph94%29.86 "Hg4 mi
5:00 pm48 °FHeavy rain. Broken clouds.6 mph94%29.86 "Hg4 mi
4:30 pm50 °FRain. Broken clouds.8 mph82%29.86 "Hg4 mi
4:18 pm50 °FRain. Broken clouds.8 mph82%29.86 "Hg4 mi
4:00 pm50 °FLight rain. Broken clouds.12 mph82%29.83 "Hg5 mi
3:32 pm52 °FSprinkles. Broken clouds.7 mph88%29.83 "Hg4 mi
3:06 pm52 °FSprinkles. Broken clouds.10 mph88%29.83 "HgN/A
2:30 pm54 °FSprinkles. Broken clouds.9 mph82%29.83 "HgN/A
2:00 pm54 °FScattered showers. Broken clouds.9 mph77%29.83 "HgN/A
1:30 pm54 °FBroken clouds.10 mph82%29.83 "HgN/A
1:00 pm54 °FBroken clouds.10 mph82%29.86 "HgN/A
12:30 pm55 °FBroken clouds.10 mph77%29.86 "HgN/A
12:00 pm55 °FDrizzle. Broken clouds.13 mph82%29.86 "Hg5 mi
11:00 am54 °FScattered showers. Partly sunny.10 mph77%29.89 "HgN/A
Weather by CustomWeather, © 2019

See weather overview